Time,TemperatureF,DewpointF,PressureIn,WindDirection,WindDirectionDegrees,WindSpeedMPH,WindSpeedGustMPH,Humidity,HourlyPrecipIn,Conditions,Clouds,dailyrainin,SoftwareType,DateUTC
2013-01-06 00:00:00,-0.7,-3.1,30.92,SSE,160,0.0,1.0,89,0.00,,,0.00,WeatherCatV1.11B39,2013-01-06 07:00:00,
2013-01-06 00:05:00,-0.8,-3.5,30.92,SSE,153,0.0,0.0,88,0.00,,,0.00,WeatherCatV1.11B39,2013-01-06 07:05:00,
2013-01-06 00:10:00,-0.8,-3.5,30.92,SSE,153,0.0,0.0,88,0.00,,,0.00,WeatherCatV1.11B39,2013-01-06 07:10:00,
2013-01-06 00:15:00,-1.0,-3.7,30.92,SSE,153,0.0,0.0,88,0.00,,,0.00,WeatherCatV1.11B39,2013-01-06 07:15:00,
2013-01-06 00:20:00,-1.3,-4.0,30.92,SSE,154,0.0,0.0,88,0.00,,,0.00,WeatherCatV1.11B39,2013-01-06 07:20:00,
2013-01-06 00:25:00,-1.1,-3.5,30.92,SE,135,0.0,0.0,89,0.00,,,0.00,WeatherCatV1.11B39,2013-01-06 07:25:00,
2013-01-06 00:30:00,-1.2,-3.9,30.92,SE,145,0.0,1.0,88,0.00,,,0.00,WeatherCatV1.11B39,2013-01-06 07:30:00,
2013-01-06 00:35:00,-1.3,-4.0,30.92,SE,125,0.0,0.0,88,0.00,,,0.00,WeatherCatV1.11B39,2013-01-06 07:35:00,
2013-01-06 00:40:00,-1.6,-4.3,30.92,SE,125,0.0,1.0,88,0.00,,,0.00,WeatherCatV1.11B39,2013-01-06 07:40:00,
2013-01-06 00:45:00,-1.7,-4.6,30.92,SSE,166,0.0,0.0,87,0.00,,,0.00,WeatherCatV1.11B39,2013-01-06 07:45:00,
2013-01-06 00:50:00,-1.9,-4.6,30.92,SSE,152,0.0,0.0,88,0.00,,,0.00,WeatherCatV1.11B39,2013-01-06 07:50:00,
2013-01-06 00:55:00,-2.0,-4.7,30.92,SSE,152,0.0,0.0,88,0.00,,,0.00,WeatherCatV1.11B39,2013-01-06 07:55:00,
2013-01-06 01:00:00,-2.1,-5.0,30.92,SSE,152,0.0,0.0,87,0.00,,,0.00,WeatherCatV1.11B39,2013-01-06 08:00:00,
2013-01-06 01:05:00,-2.2,-5.1,30.92,SSE,162,0.0,0.0,87,0.00,,,0.00,WeatherCatV1.11B39,2013-01-06 08:05:00,
2013-01-06 01:10:00,-2.3,-4.7,30.92,South,169,0.0,2.0,89,0.00,,,0.00,WeatherCatV1.11B39,2013-01-06 08:10:00,
2013-01-06 01:15:00,-2.4,-5.1,30.92,SSE,160,1.0,1.0,88,0.00,,,0.00,WeatherCatV1.11B39,2013-01-06 08:15:00,
2013-01-06 01:20:00,-2.4,-5.1,30.92,SSE,155,0.0,0.0,88,0.00,,,0.00,WeatherCatV1.11B39,2013-01-06 08:20:00,
2013-01-06 01:25:00,-2.2,-4.6,30.92,SE,138,0.0,0.0,89,0.00,,,0.00,WeatherCatV1.11B39,2013-01-06 08:25:00,
2013-01-06 01:30:00,-2.0,-4.4,30.92,SSE,153,0.0,0.0,89,0.00,,,0.00,WeatherCatV1.11B39,2013-01-06 08:30:00,
2013-01-06 01:35:00,-2.2,-5.1,30.92,SSE,154,0.0,0.0,87,0.00,,,0.00,WeatherCatV1.11B39,2013-01-06 08:35:00,
2013-01-06 01:40:00,-2.3,-5.0,30.92,SSE,154,0.0,0.0,88,0.00,,,0.00,WeatherCatV1.11B39,2013-01-06 08:40:00,
2013-01-06 01:45:00,-2.5,-5.4,30.92,SSE,154,0.0,0.0,87,0.00,,,0.00,WeatherCatV1.11B39,2013-01-06 08:45:00,
2013-01-06 01:50:00,-2.7,-5.4,30.92,SSW,200,1.0,1.0,88,0.00,,,0.00,WeatherCatV1.11B39,2013-01-06 08:50:00,
2013-01-06 01:55:00,-2.9,-5.6,30.93,SSE,152,1.0,1.0,88,0.00,,,0.00,WeatherCatV1.11B39,2013-01-06 08:55:00,
2013-01-06 02:00:00,-2.9,-5.6,30.93,SE,143,0.0,0.0,88,0.00,,,0.00,WeatherCatV1.11B39,2013-01-06 09:00:00,
2013-01-06 02:05:00,-3.0,-5.7,30.93,South,169,1.0,1.0,88,0.00,,,0.00,WeatherCatV1.11B39,2013-01-06 09:05:00,
2013-01-06 02:10:00,-3.0,-5.7,30.93,South,187,0.0,1.0,88,0.00,,,0.00,WeatherCatV1.11B39,2013-01-06 09:10:00,
2013-01-06 02:15:00,-3.2,-6.1,30.93,SSE,153,0.0,0.0,87,0.00,,,0.00,WeatherCatV1.11B39,2013-01-06 09:15:00,
2013-01-06 02:20:00,-3.4,-6.3,30.93,SSE,153,0.0,0.0,87,0.00,,,0.00,WeatherCatV1.11B39,2013-01-06 09:20:00,
2013-01-06 02:25:00,-3.4,-6.3,30.93,SSE,154,0.0,0.0,87,0.00,,,0.00,WeatherCatV1.11B39,2013-01-06 09:25:00,
2013-01-06 02:30:00,-3.5,-6.1,30.92,SSE,154,0.0,0.0,88,0.00,,,0.00,WeatherCatV1.11B39,2013-01-06 09:30:00,
2013-01-06 02:35:00,-3.6,-6.2,30.93,SSE,154,0.0,0.0,88,0.00,,,0.00,WeatherCatV1.11B39,2013-01-06 09:35:00,
2013-01-06 02:40:00,-3.6,-6.2,30.92,SSE,165,0.0,0.0,88,0.00,,,0.00,WeatherCatV1.11B39,2013-01-06 09:40:00,
2013-01-06 02:45:00,-3.8,-6.7,30.92,SSE,158,0.0,1.0,87,0.00,,,0.00,WeatherCatV1.11B39,2013-01-06 09:45:00,
2013-01-06 02:50:00,-3.8,-6.4,30.92,ESE,121,0.0,1.0,88,0.00,,,0.00,WeatherCatV1.11B39,2013-01-06 09:50:00,
2013-01-06 02:55:00,-3.8,-6.7,30.92,ESE,121,0.0,1.0,87,0.00,,,0.00,WeatherCatV1.11B39,2013-01-06 09:55:00,
2013-01-06 03:00:00,-3.5,-6.1,30.92,SSE,150,0.0,0.0,88,0.00,,,0.00,WeatherCatV1.11B39,2013-01-06 10:00:00,
2013-01-06 03:05:00,-3.5,-6.4,30.92,SSE,150,0.0,0.0,87,0.00,,,0.00,WeatherCatV1.11B39,2013-01-06 10:05:00,
2013-01-06 03:10:00,-3.7,-6.6,30.92,SSE,150,0.0,0.0,87,0.00,,,0.00,WeatherCatV1.11B39,2013-01-06 10:10:00,
2013-01-06 03:15:00,-4.0,-6.9,30.92,SSE,150,0.0,0.0,87,0.00,,,0.00,WeatherCatV1.11B39,2013-01-06 10:15:00,
2013-01-06 03:20:00,-4.1,-6.7,30.92,South,169,0.0,1.0,88,0.00,,,0.00,WeatherCatV1.11B39,2013-01-06 10:20:00,
2013-01-06 03:25:00,-4.0,-6.6,30.92,SSE,156,1.0,1.0,88,0.00,,,0.00,WeatherCatV1.11B39,2013-01-06 10:25:00,
2013-01-06 03:30:00,-3.8,-6.2,30.91,SE,139,0.0,0.0,89,0.00,,,0.00,WeatherCatV1.11B39,2013-01-06 10:30:00,
2013-01-06 03:35:00,-3.8,-6.4,30.91,SE,138,0.0,0.0,88,0.00,,,0.00,WeatherCatV1.11B39,2013-01-06 10:35:00,
2013-01-06 03:40:00,-3.9,-6.8,30.91,SE,139,0.0,0.0,87,0.00,,,0.00,WeatherCatV1.11B39,2013-01-06 10:40:00,
2013-01-06 03:45:00,-4.1,-7.2,30.91,SE,138,0.0,0.0,86,0.00,,,0.00,WeatherCatV1.11B39,2013-01-06 10:45:00,
2013-01-06 03:50:00,-4.3,-7.2,30.91,SSE,155,0.0,0.0,87,0.00,,,0.00,WeatherCatV1.11B39,2013-01-06 10:50:00,
2013-01-06 03:55:00,-4.4,-7.3,30.91,SSE,155,0.0,0.0,87,0.00,,,0.00,WeatherCatV1.11B39,2013-01-06 10:55:00,
2013-01-06 04:00:00,-4.6,-7.2,30.90,South,179,1.0,1.0,88,0.00,,,0.00,WeatherCatV1.11B39,2013-01-06 11:00:00,
2013-01-06 04:05:00,-4.6,-7.2,30.90,SE,135,0.0,0.0,88,0.00,,,0.00,WeatherCatV1.11B39,2013-01-06 11:05:00,
2013-01-06 04:10:00,-4.4,-7.0,30.90,SE,129,0.0,1.0,88,0.00,,,0.00,WeatherCatV1.11B39,2013-01-06 11:10:00,
2013-01-06 04:15:00,-4.5,-7.4,30.90,SE,132,0.0,0.0,87,0.00,,,0.00,WeatherCatV1.11B39,2013-01-06 11:15:00,
2013-01-06 04:20:00,-4.7,-7.6,30.90,SE,133,0.0,0.0,87,0.00,,,0.00,WeatherCatV1.11B39,2013-01-06 11:20:00,
2013-01-06 04:25:00,-4.7,-7.6,30.90,South,187,0.0,0.0,87,0.00,,,0.00,WeatherCatV1.11B39,2013-01-06 11:25:00,
2013-01-06 04:30:00,-4.8,-7.7,30.90,South,187,0.0,0.0,87,0.00,,,0.00,WeatherCatV1.11B39,2013-01-06 11:30:00,
2013-01-06 04:35:00,-4.9,-7.8,30.90,SSE,167,0.0,1.0,87,0.00,,,0.00,WeatherCatV1.11B39,2013-01-06 11:35:00,
2013-01-06 04:40:00,-5.1,-8.0,30.90,SSE,154,0.0,0.0,87,0.00,,,0.00,WeatherCatV1.11B39,2013-01-06 11:40:00,
2013-01-06 04:45:00,-5.1,-8.0,30.90,ESE,114,0.0,1.0,87,0.00,,,0.00,WeatherCatV1.11B39,2013-01-06 11:45:00,
2013-01-06 04:50:00,-5.0,-7.9,30.90,SSW,212,1.0,1.0,87,0.00,,,0.00,WeatherCatV1.11B39,2013-01-06 11:50:00,
2013-01-06 04:55:00,-5.2,-8.1,30.90,SSW,207,1.0,1.0,87,0.00,,,0.00,WeatherCatV1.11B39,2013-01-06 11:55:00,
2013-01-06 05:00:00,-5.2,-8.1,30.90,SSE,149,1.0,1.0,87,0.00,,,0.00,WeatherCatV1.11B39,2013-01-06 12:00:00,
2013-01-06 05:05:00,-5.0,-7.6,30.90,SW,236,0.0,0.0,88,0.00,,,0.00,WeatherCatV1.11B39,2013-01-06 12:05:00,
2013-01-06 05:10:00,-5.0,-7.9,30.89,East,86,0.0,1.0,87,0.00,,,0.00,WeatherCatV1.11B39,2013-01-06 12:10:00,
2013-01-06 05:15:00,-4.9,-7.8,30.90,East,100,0.0,0.0,87,0.00,,,0.00,WeatherCatV1.11B39,2013-01-06 12:15:00,
2013-01-06 05:20:00,-5.0,-8.1,30.90,East,100,0.0,0.0,86,0.00,,,0.00,WeatherCatV1.11B39,2013-01-06 12:20:00,
2013-01-06 05:25:00,-5.2,-8.3,30.90,SSE,167,0.0,0.0,86,0.00,,,0.00,WeatherCatV1.11B39,2013-01-06 12:25:00,
2013-01-06 05:30:00,-5.4,-8.5,30.90,South,173,0.0,1.0,86,0.00,,,0.00,WeatherCatV1.11B39,2013-01-06 12:30:00,
2013-01-06 05:35:00,-5.4,-8.3,30.90,SSE,150,0.0,1.0,87,0.00,,,0.00,WeatherCatV1.11B39,2013-01-06 12:35:00,
2013-01-06 05:40:00,-5.2,-7.8,30.90,SE,124,0.0,1.0,88,0.00,,,0.00,WeatherCatV1.11B39,2013-01-06 12:40:00,
2013-01-06 05:43:00,-5.2,-7.8,30.90,ESE,117,0.0,0.0,88,0.00,,,0.00,WeatherCatV1.11B39,2013-01-06 12:43:00,
2013-01-06 05:48:00,-5.1,-8.0,30.90,SW,219,0.0,0.0,87,0.00,,,0.00,WeatherCatV1.11B39,2013-01-06 12:48:00,
2013-01-06 05:53:00,-5.4,-8.5,30.90,SW,231,0.0,0.0,86,0.00,,,0.00,WeatherCatV1.11B39,2013-01-06 12:53:00,
2013-01-06 05:58:00,-5.6,-8.7,30.91,SW,231,0.0,0.0,86,0.00,,,0.00,WeatherCatV1.11B39,2013-01-06 12:58:00,
2013-01-06 06:03:00,-5.9,-9.0,30.90,SW,231,0.0,0.0,86,0.00,,,0.00,WeatherCatV1.11B39,2013-01-06 13:03:00,
2013-01-06 06:08:00,-6.0,-9.1,30.90,SSE,155,0.0,0.0,86,0.00,,,0.00,WeatherCatV1.11B39,2013-01-06 13:08:00,
2013-01-06 06:13:00,-6.1,-9.2,30.90,SSE,155,0.0,0.0,86,0.00,,,0.00,WeatherCatV1.11B39,2013-01-06 13:13:00,
2013-01-06 06:18:00,-6.2,-9.3,30.90,SSE,155,0.0,0.0,86,0.00,,,0.00,WeatherCatV1.11B39,2013-01-06 13:18:00,
2013-01-06 06:23:00,-6.3,-9.4,30.90,SSW,198,0.0,1.0,86,0.00,,,0.00,WeatherCatV1.11B39,2013-01-06 13:23:00,
2013-01-06 06:28:00,-6.4,-9.2,30.90,South,169,1.0,1.0,87,0.00,,,0.00,WeatherCatV1.11B39,2013-01-06 13:28:00,
2013-01-06 06:33:00,-6.3,-9.1,30.90,ESE,108,0.0,1.0,87,0.00,,,0.00,WeatherCatV1.11B39,2013-01-06 13:33:00,
2013-01-06 06:38:00,-6.2,-9.0,30.90,ESE,105,0.0,0.0,87,0.00,,,0.00,WeatherCatV1.11B39,2013-01-06 13:38:00,
2013-01-06 06:43:00,-6.3,-9.4,30.90,SSE,150,0.0,0.0,86,0.00,,,0.00,WeatherCatV1.11B39,2013-01-06 13:43:00,
2013-01-06 06:48:00,-6.3,-9.1,30.90,South,171,1.0,1.0,87,0.00,,,0.00,WeatherCatV1.11B39,2013-01-06 13:48:00,
2013-01-06 06:53:00,-6.4,-9.5,30.90,SSE,157,0.0,0.0,86,0.00,,,0.00,WeatherCatV1.11B39,2013-01-06 13:53:00,
2013-01-06 06:58:00,-6.7,-9.8,30.90,SSE,161,0.0,0.0,86,0.00,,,0.00,WeatherCatV1.11B39,2013-01-06 13:58:00,
2013-01-06 07:03:00,-6.7,-9.5,30.90,ESE,116,0.0,0.0,87,0.00,,,0.00,WeatherCatV1.11B39,2013-01-06 14:03:00,
2013-01-06 07:08:00,-6.5,-9.3,30.90,ESE,115,0.0,1.0,87,0.00,,,0.00,WeatherCatV1.11B39,2013-01-06 14:08:00,
2013-01-06 07:13:00,-6.3,-9.1,30.90,ESE,115,0.0,0.0,87,0.00,,,0.00,WeatherCatV1.11B39,2013-01-06 14:13:00,
2013-01-06 07:18:00,-6.4,-9.5,30.90,South,180,1.0,1.0,86,0.00,,,0.00,WeatherCatV1.11B39,2013-01-06 14:18:00,
2013-01-06 07:23:00,-6.6,-9.7,30.90,SSE,167,0.0,0.0,86,0.00,,,0.00,WeatherCatV1.11B39,2013-01-06 14:23:00,
2013-01-06 07:28:00,-6.7,-9.5,30.90,South,169,0.0,1.0,87,0.00,,,0.00,WeatherCatV1.11B39,2013-01-06 14:28:00,
2013-01-06 07:33:00,-6.8,-9.9,30.90,South,187,0.0,1.0,86,0.00,,,0.00,WeatherCatV1.11B39,2013-01-06 14:33:00,
2013-01-06 07:38:00,-6.8,-9.9,30.90,SE,131,0.0,0.0,86,0.00,,,0.00,WeatherCatV1.11B39,2013-01-06 14:38:00,
2013-01-06 07:43:00,-6.7,-9.8,30.90,SE,131,0.0,0.0,86,0.00,,,0.00,WeatherCatV1.11B39,2013-01-06 14:43:00,
2013-01-06 07:48:00,-6.6,-9.7,30.90,SE,131,0.0,0.0,86,0.00,,,0.00,WeatherCatV1.11B39,2013-01-06 14:48:00,
2013-01-06 07:53:00,-6.6,-9.7,30.90,SW,217,0.0,0.0,86,0.00,,,0.00,WeatherCatV1.11B39,2013-01-06 14:53:00,
2013-01-06 07:58:00,-6.5,-9.3,30.90,SSW,200,0.0,1.0,87,0.00,,,0.00,WeatherCatV1.11B39,2013-01-06 14:58:00,
2013-01-06 08:03:00,-6.1,-8.9,30.90,SSE,159,0.0,0.0,87,0.00,,,0.00,WeatherCatV1.11B39,2013-01-06 15:03:00,
2013-01-06 08:08:00,-5.2,-8.1,30.90,SSE,153,0.0,1.0,87,0.00,,,0.00,WeatherCatV1.11B39,2013-01-06 15:08:00,
2013-01-06 08:13:00,-4.1,-6.7,30.90,SSE,151,1.0,1.0,88,0.00,,,0.00,WeatherCatV1.11B39,2013-01-06 15:13:00,
2013-01-06 08:18:00,-3.0,-5.7,30.90,SSE,160,0.0,0.0,88,0.00,,,0.00,WeatherCatV1.11B39,2013-01-06 15:18:00,
2013-01-06 08:23:00,-2.2,-5.3,30.90,ESE,111,1.0,2.0,86,0.00,,,0.00,WeatherCatV1.11B39,2013-01-06 15:23:00,
2013-01-06 08:28:00,-1.3,-4.2,30.89,SW,224,1.0,1.0,87,0.00,,,0.00,WeatherCatV1.11B39,2013-01-06 15:28:00,
2013-01-06 08:33:00,-0.7,-3.6,30.90,SSE,158,0.0,1.0,87,0.00,,,0.00,WeatherCatV1.11B39,2013-01-06 15:33:00,
2013-01-06 08:38:00,-0.1,-3.5,30.90,SW,229,0.0,1.0,85,0.00,,,0.00,WeatherCatV1.11B39,2013-01-06 15:38:00,
2013-01-06 08:43:00,0.4,-3.0,30.90,South,183,1.0,3.0,85,0.00,,,0.00,WeatherCatV1.11B39,2013-01-06 15:43:00,
2013-01-06 08:48:00,0.5,-2.9,30.89,South,178,1.0,1.0,85,0.00,,,0.00,WeatherCatV1.11B39,2013-01-06 15:48:00,
2013-01-06 08:53:00,1.1,-2.3,30.89,SE,135,0.0,0.0,85,0.00,,,0.00,WeatherCatV1.11B39,2013-01-06 15:53:00,
2013-01-06 08:58:00,2.2,-1.0,30.90,ESE,102,0.0,1.0,86,0.00,,,0.00,WeatherCatV1.11B39,2013-01-06 15:58:00,
2013-01-06 09:03:00,3.0,-0.2,30.89,ESE,119,0.0,1.0,86,0.00,,,0.00,WeatherCatV1.11B39,2013-01-06 16:03:00,
2013-01-06 09:08:00,3.8,0.3,30.89,South,177,1.0,1.0,85,0.00,,,0.00,WeatherCatV1.11B39,2013-01-06 16:08:00,
2013-01-06 09:13:00,4.7,1.2,30.89,SE,146,0.0,1.0,85,0.00,,,0.00,WeatherCatV1.11B39,2013-01-06 16:13:00,
2013-01-06 09:18:00,5.0,1.0,30.89,SSE,166,1.0,2.0,83,0.00,,,0.00,WeatherCatV1.11B39,2013-01-06 16:18:00,
2013-01-06 09:23:00,4.7,0.4,30.88,SSE,160,0.0,2.0,82,0.00,,,0.00,WeatherCatV1.11B39,2013-01-06 16:23:00,
2013-01-06 09:28:00,4.9,0.6,30.88,South,180,0.0,1.0,82,0.00,,,0.00,WeatherCatV1.11B39,2013-01-06 16:28:00,
2013-01-06 09:33:00,5.4,1.4,30.88,SSE,160,1.0,2.0,83,0.00,,,0.00,WeatherCatV1.11B39,2013-01-06 16:33:00,
2013-01-06 09:38:00,6.4,2.9,30.87,East,96,1.0,1.0,85,0.00,,,0.00,WeatherCatV1.11B39,2013-01-06 16:38:00,
2013-01-06 09:43:00,7.1,3.0,30.87,SE,126,0.0,0.0,83,0.00,,,0.00,WeatherCatV1.11B39,2013-01-06 16:43:00,
2013-01-06 09:48:00,8.3,4.5,30.86,SE,142,0.0,1.0,84,0.00,,,0.00,WeatherCatV1.11B39,2013-01-06 16:48:00,
2013-01-06 09:53:00,9.0,4.4,30.86,SE,124,0.0,1.0,81,0.00,,,0.00,WeatherCatV1.11B39,2013-01-06 16:53:00,
2013-01-06 09:58:00,9.8,5.4,30.86,SSW,198,0.0,1.0,82,0.00,,,0.00,WeatherCatV1.11B39,2013-01-06 16:58:00,
2013-01-06 10:03:00,10.7,5.5,30.86,ENE,70,1.0,1.0,79,0.00,,,0.00,WeatherCatV1.11B39,2013-01-06 17:03:00,
2013-01-06 10:08:00,10.7,4.9,30.85,ESE,121,0.0,1.0,77,0.00,,,0.00,WeatherCatV1.11B39,2013-01-06 17:08:00,
2013-01-06 10:13:00,12.1,6.6,30.85,SE,130,0.0,1.0,78,0.00,,,0.00,WeatherCatV1.11B39,2013-01-06 17:13:00,
2013-01-06 10:18:00,13.2,6.8,30.84,South,176,0.0,0.0,75,0.00,,,0.00,WeatherCatV1.11B39,2013-01-06 17:18:00,
2013-01-06 10:23:00,14.0,7.0,30.84,SSE,159,0.0,1.0,73,0.00,,,0.00,WeatherCatV1.11B39,2013-01-06 17:23:00,
2013-01-06 10:28:00,15.2,7.2,30.83,SSE,155,1.0,1.0,70,0.00,,,0.00,WeatherCatV1.11B39,2013-01-06 17:28:00,
2013-01-06 10:33:00,15.4,6.1,30.83,SE,137,1.0,1.0,66,0.00,,,0.00,WeatherCatV1.11B39,2013-01-06 17:33:00,
2013-01-06 10:38:00,16.1,7.1,30.82,ESE,110,0.0,0.0,67,0.00,,,0.00,WeatherCatV1.11B39,2013-01-06 17:38:00,
2013-01-06 10:43:00,16.8,6.4,30.81,SSE,157,0.0,1.0,63,0.00,,,0.00,WeatherCatV1.11B39,2013-01-06 17:43:00,
2013-01-06 10:48:00,17.9,6.8,30.81,SE,138,1.0,1.0,61,0.00,,,0.00,WeatherCatV1.11B39,2013-01-06 17:48:00,
2013-01-06 10:53:00,17.8,6.3,30.80,SE,127,0.0,2.0,60,0.00,,,0.00,WeatherCatV1.11B39,2013-01-06 17:53:00,
2013-01-06 10:58:00,18.0,6.9,30.79,East,85,0.0,1.0,61,0.00,,,0.00,WeatherCatV1.11B39,2013-01-06 17:58:00,
2013-01-06 11:03:00,18.4,6.9,30.79,WSW,252,0.0,0.0,60,0.00,,,0.00,WeatherCatV1.11B39,2013-01-06 18:03:00,
2013-01-06 11:08:00,19.0,6.7,30.78,SSE,153,2.0,2.0,58,0.00,,,0.00,WeatherCatV1.11B39,2013-01-06 18:08:00,
2013-01-06 11:13:00,19.3,7.0,30.77,South,183,2.0,2.0,58,0.00,,,0.00,WeatherCatV1.11B39,2013-01-06 18:13:00,
2013-01-06 11:18:00,19.7,7.7,30.77,SSE,164,1.0,2.0,59,0.00,,,0.00,WeatherCatV1.11B39,2013-01-06 18:18:00,
2013-01-06 11:23:00,19.4,7.1,30.76,South,181,1.0,3.0,58,0.00,,,0.00,WeatherCatV1.11B39,2013-01-06 18:23:00,
2013-01-06 11:28:00,19.8,7.1,30.75,SSW,198,1.0,3.0,57,0.00,,,0.00,WeatherCatV1.11B39,2013-01-06 18:28:00,
2013-01-06 11:33:00,20.0,7.6,30.75,SE,145,0.0,2.0,58,0.00,,,0.00,WeatherCatV1.11B39,2013-01-06 18:33:00,
2013-01-06 11:38:00,20.2,7.4,30.74,SW,217,1.0,2.0,57,0.00,,,0.00,WeatherCatV1.11B39,2013-01-06 18:38:00,
2013-01-06 11:43:00,20.4,7.6,30.74,SSE,158,1.0,2.0,57,0.00,,,0.00,WeatherCatV1.11B39,2013-01-06 18:43:00,
2013-01-06 11:48:00,20.6,7.8,30.73,SE,143,2.0,2.0,57,0.00,,,0.00,WeatherCatV1.11B39,2013-01-06 18:48:00,
2013-01-06 11:53:00,20.4,6.4,30.72,SSE,160,0.0,2.0,54,0.00,,,0.00,WeatherCatV1.11B39,2013-01-06 18:53:00,
2013-01-06 11:58:00,21.1,7.1,30.72,SW,215,0.0,2.0,54,0.00,,,0.00,WeatherCatV1.11B39,2013-01-06 18:58:00,
2013-01-06 12:03:00,21.7,7.2,30.71,SW,221,1.0,2.0,53,0.00,,,0.00,WeatherCatV1.11B39,2013-01-06 19:03:00,
2013-01-06 12:08:00,22.2,7.7,30.70,SE,139,0.0,1.0,53,0.00,,,0.00,WeatherCatV1.11B39,2013-01-06 19:08:00,
2013-01-06 12:13:00,22.8,7.4,30.70,SE,124,0.0,1.0,51,0.00,,,0.00,WeatherCatV1.11B39,2013-01-06 19:13:00,
2013-01-06 12:18:00,23.0,7.6,30.69,ESE,111,0.0,1.0,51,0.00,,,0.00,WeatherCatV1.11B39,2013-01-06 19:18:00,
2013-01-06 12:23:00,22.9,7.1,30.68,ESE,115,1.0,1.0,50,0.00,,,0.00,WeatherCatV1.11B39,2013-01-06 19:23:00,
2013-01-06 12:28:00,23.4,7.5,30.68,South,173,1.0,1.0,50,0.00,,,0.00,WeatherCatV1.11B39,2013-01-06 19:28:00,
2013-01-06 12:33:00,23.9,8.0,30.67,ESE,105,0.0,1.0,50,0.00,,,0.00,WeatherCatV1.11B39,2013-01-06 19:33:00,
2013-01-06 12:38:00,24.8,7.9,30.67,NNE,26,0.0,1.0,48,0.00,,,0.00,WeatherCatV1.11B39,2013-01-06 19:38:00,
2013-01-06 12:48:00,25.5,8.1,30.65,SSE,155,0.0,1.0,47,0.00,,,0.00,WeatherCatV1.11B39,2013-01-06 19:48:00,
2013-01-06 12:50:00,26.1,8.7,30.65,SW,232,2.0,2.0,47,0.00,,,0.00,WeatherCatV1.11B39,2013-01-06 19:50:00,
2013-01-06 12:55:00,26.6,7.7,30.65,South,191,2.0,2.0,44,0.00,,,0.00,WeatherCatV1.11B39,2013-01-06 19:55:00,
2013-01-06 13:00:00,26.2,8.8,30.64,South,177,2.0,2.0,47,0.00,,,0.00,WeatherCatV1.11B39,2013-01-06 20:00:00,
2013-01-06 13:05:00,26.7,8.7,30.64,SW,226,2.0,3.0,46,0.00,,,0.00,WeatherCatV1.11B39,2013-01-06 20:05:00,
2013-01-06 13:10:00,27.3,8.3,30.63,SW,229,1.0,3.0,44,0.00,,,0.00,WeatherCatV1.11B39,2013-01-06 20:10:00,
2013-01-06 13:15:00,27.4,8.4,30.63,South,171,1.0,2.0,44,0.00,,,0.00,WeatherCatV1.11B39,2013-01-06 20:15:00,
2013-01-06 13:20:00,28.1,9.0,30.63,SW,219,3.0,4.0,44,0.00,,,0.00,WeatherCatV1.11B39,2013-01-06 20:20:00,
2013-01-06 13:25:00,28.1,9.0,30.62,SE,128,1.0,3.0,44,0.00,,,0.00,WeatherCatV1.11B39,2013-01-06 20:25:00,
2013-01-06 13:30:00,28.3,9.2,30.61,SW,218,3.0,3.0,44,0.00,,,0.00,WeatherCatV1.11B39,2013-01-06 20:30:00,
2013-01-06 13:35:00,28.5,8.9,30.61,SE,145,1.0,2.0,43,0.00,,,0.00,WeatherCatV1.11B39,2013-01-06 20:35:00,
2013-01-06 13:40:00,29.0,9.8,30.61,ESE,108,1.0,1.0,44,0.00,,,0.00,WeatherCatV1.11B39,2013-01-06 20:40:00,
2013-01-06 13:45:00,29.0,8.3,30.60,NNE,33,1.0,1.0,41,0.00,,,0.00,WeatherCatV1.11B39,2013-01-06 20:45:00,
2013-01-06 13:50:00,29.5,9.3,30.60,SE,138,0.0,0.0,42,0.00,,,0.00,WeatherCatV1.11B39,2013-01-06 20:50:00,
2013-01-06 13:55:00,30.0,8.6,30.59,SE,141,0.0,1.0,40,0.00,,,0.00,WeatherCatV1.11B39,2013-01-06 20:55:00,
2013-01-06 14:00:00,30.7,9.8,30.59,SW,224,0.0,0.0,41,0.00,,,0.00,WeatherCatV1.11B39,2013-01-06 21:00:00,
2013-01-06 14:05:00,30.6,9.2,30.59,NNW,328,1.0,1.0,40,0.00,,,0.00,WeatherCatV1.11B39,2013-01-06 21:05:00,
2013-01-06 14:10:00,30.8,9.4,30.59,WSW,256,1.0,2.0,40,0.00,,,0.00,WeatherCatV1.11B39,2013-01-06 21:10:00,
2013-01-06 14:15:00,31.0,9.0,30.58,WSW,252,1.0,2.0,39,0.00,,,0.00,WeatherCatV1.11B39,2013-01-06 21:15:00,
2013-01-06 14:20:00,31.2,9.7,30.58,NW,310,1.0,2.0,40,0.00,,,0.00,WeatherCatV1.11B39,2013-01-06 21:20:00,
2013-01-06 14:25:00,31.0,9.5,30.58,West,280,0.0,1.0,40,0.00,,,0.00,WeatherCatV1.11B39,2013-01-06 21:25:00,
2013-01-06 14:30:00,30.9,9.5,30.58,NNW,328,0.0,0.0,40,0.00,,,0.00,WeatherCatV1.11B39,2013-01-06 21:30:00,
2013-01-06 14:35:00,30.6,9.7,30.58,WNW,291,0.0,1.0,41,0.00,,,0.00,WeatherCatV1.11B39,2013-01-06 21:35:00,
2013-01-06 14:40:00,30.3,8.3,30.57,North,8,2.0,4.0,39,0.00,,,0.00,WeatherCatV1.11B39,2013-01-06 21:40:00,
2013-01-06 14:45:00,29.6,7.7,30.57,NNW,347,2.0,3.0,39,0.00,,,0.00,WeatherCatV1.11B39,2013-01-06 21:45:00,
2013-01-06 14:50:00,29.0,7.7,30.58,North,353,1.0,3.0,40,0.00,,,0.00,WeatherCatV1.11B39,2013-01-06 21:50:00,
2013-01-06 14:55:00,28.9,8.7,30.57,NW,326,1.0,1.0,42,0.00,,,0.00,WeatherCatV1.11B39,2013-01-06 21:55:00,
2013-01-06 15:00:00,28.9,8.7,30.57,NNE,17,3.0,4.0,42,0.00,,,0.00,WeatherCatV1.11B39,2013-01-06 22:00:00,
2013-01-06 15:05:00,28.6,8.5,30.57,North,352,2.0,4.0,42,0.00,,,0.00,WeatherCatV1.11B39,2013-01-06 22:05:00,
2013-01-06 15:10:00,28.2,9.1,30.58,North,1,2.0,6.0,44,0.00,,,0.00,WeatherCatV1.11B39,2013-01-06 22:10:00,
2013-01-06 15:15:00,27.7,9.2,30.58,WNW,294,1.0,5.0,45,0.00,,,0.00,WeatherCatV1.11B39,2013-01-06 22:15:00,
2013-01-06 15:20:00,27.6,9.1,30.58,West,278,4.0,4.0,45,0.00,,,0.00,WeatherCatV1.11B39,2013-01-06 22:20:00,
2013-01-06 15:25:00,27.5,9.0,30.58,NNW,329,2.0,3.0,45,0.00,,,0.00,WeatherCatV1.11B39,2013-01-06 22:25:00,
2013-01-06 15:30:00,27.4,9.4,30.58,NW,310,3.0,3.0,46,0.00,,,0.00,WeatherCatV1.11B39,2013-01-06 22:30:00,
2013-01-06 15:35:00,27.3,9.3,30.58,West,280,3.0,3.0,46,0.00,,,0.00,WeatherCatV1.11B39,2013-01-06 22:35:00,
2013-01-06 15:40:00,27.2,9.2,30.58,WNW,301,1.0,3.0,46,0.00,,,0.00,WeatherCatV1.11B39,2013-01-06 22:40:00,
2013-01-06 15:45:00,27.0,9.5,30.58,SSW,212,0.0,1.0,47,0.00,,,0.00,WeatherCatV1.11B39,2013-01-06 22:45:00,
2013-01-06 15:50:00,26.9,8.4,30.59,NNW,345,1.0,4.0,45,0.00,,,0.00,WeatherCatV1.11B39,2013-01-06 22:50:00,
2013-01-06 15:55:00,26.8,9.3,30.58,West,260,0.0,1.0,47,0.00,,,0.00,WeatherCatV1.11B39,2013-01-06 22:55:00,
2013-01-06 16:00:00,26.7,9.2,30.58,West,263,1.0,2.0,47,0.00,,,0.00,WeatherCatV1.11B39,2013-01-06 23:00:00,
2013-01-06 16:06:00,26.5,9.0,30.58,WNW,285,0.0,1.0,47,0.00,,,0.00,WeatherCatV1.11B39,2013-01-06 23:06:00,
2013-01-06 16:11:00,26.4,9.4,30.58,NW,305,0.0,1.0,48,0.00,,,0.00,WeatherCatV1.11B39,2013-01-06 23:11:00,
2013-01-06 16:16:00,26.3,8.8,30.58,NW,311,0.0,2.0,47,0.00,,,0.00,WeatherCatV1.11B39,2013-01-06 23:16:00,
2013-01-06 16:21:00,26.2,9.2,30.58,SSW,208,1.0,2.0,48,0.00,,,0.00,WeatherCatV1.11B39,2013-01-06 23:21:00,
2013-01-06 16:26:00,26.1,9.1,30.58,West,267,0.0,1.0,48,0.00,,,0.00,WeatherCatV1.11B39,2013-01-06 23:26:00,
2013-01-06 16:31:00,25.9,9.4,30.58,SW,229,1.0,2.0,49,0.00,,,0.00,WeatherCatV1.11B39,2013-01-06 23:31:00,
2013-01-06 16:36:00,25.6,9.6,30.58,WSW,245,0.0,1.0,50,0.00,,,0.00,WeatherCatV1.11B39,2013-01-06 23:36:00,
2013-01-06 16:41:00,25.4,9.4,30.58,SW,228,1.0,1.0,50,0.00,,,0.00,WeatherCatV1.11B39,2013-01-06 23:41:00,
2013-01-06 16:46:00,25.1,10.0,30.58,South,176,1.0,1.0,52,0.00,,,0.00,WeatherCatV1.11B39,2013-01-06 23:46:00,
2013-01-06 16:51:00,24.8,8.8,30.58,SSW,194,0.0,1.0,50,0.00,,,0.00,WeatherCatV1.11B39,2013-01-06 23:51:00,
2013-01-06 16:56:00,24.7,9.6,30.58,SSW,194,0.0,0.0,52,0.00,,,0.00,WeatherCatV1.11B39,2013-01-06 23:56:00,
2013-01-06 17:01:00,24.3,10.1,30.58,SSW,205,0.0,0.0,54,0.00,,,0.00,WeatherCatV1.11B39,2013-01-07 00:01:00,
2013-01-06 17:06:00,24.0,9.8,30.57,South,187,0.0,0.0,54,0.00,,,0.00,WeatherCatV1.11B39,2013-01-07 00:06:00,
2013-01-06 17:11:00,23.6,10.2,30.57,SW,233,1.0,1.0,56,0.00,,,0.00,WeatherCatV1.11B39,2013-01-07 00:11:00,
2013-01-06 17:16:00,23.3,10.3,30.57,SW,233,0.0,0.0,57,0.00,,,0.00,WeatherCatV1.11B39,2013-01-07 00:16:00,
2013-01-06 17:21:00,23.0,10.5,30.57,South,176,0.0,1.0,58,0.00,,,0.00,WeatherCatV1.11B39,2013-01-07 00:21:00,
2013-01-06 17:26:00,22.5,11.5,30.57,SE,131,0.0,1.0,62,0.00,,,0.00,WeatherCatV1.11B39,2013-01-07 00:26:00,
2013-01-06 17:31:00,22.2,11.2,30.57,SSE,156,0.0,1.0,62,0.00,,,0.00,WeatherCatV1.11B39,2013-01-07 00:31:00,
2013-01-06 17:36:00,21.8,11.5,30.57,South,188,0.0,0.0,64,0.00,,,0.00,WeatherCatV1.11B39,2013-01-07 00:36:00,
2013-01-06 17:41:00,21.4,11.5,30.57,South,189,0.0,0.0,65,0.00,,,0.00,WeatherCatV1.11B39,2013-01-07 00:41:00,
2013-01-06 17:46:00,21.0,11.8,30.57,South,189,0.0,0.0,67,0.00,,,0.00,WeatherCatV1.11B39,2013-01-07 00:46:00,
2013-01-06 17:50:00,20.7,11.2,30.57,South,177,0.0,0.0,66,0.00,,,0.00,WeatherCatV1.11B39,2013-01-07 00:50:00,
2013-01-06 17:55:00,20.5,11.0,30.57,WSW,248,0.0,0.0,66,0.00,,,0.00,WeatherCatV1.11B39,2013-01-07 00:55:00,
2013-01-06 18:00:00,20.1,10.9,30.57,WSW,246,0.0,0.0,67,0.00,,,0.00,WeatherCatV1.11B39,2013-01-07 01:00:00,
2013-01-06 18:05:00,19.8,10.6,30.57,WSW,246,0.0,0.0,67,0.00,,,0.00,WeatherCatV1.11B39,2013-01-07 01:05:00,
2013-01-06 18:10:00,19.6,10.8,30.57,WSW,246,0.0,0.0,68,0.00,,,0.00,WeatherCatV1.11B39,2013-01-07 01:10:00,
2013-01-06 18:15:00,19.4,10.6,30.57,WSW,246,0.0,0.0,68,0.00,,,0.00,WeatherCatV1.11B39,2013-01-07 01:15:00,
2013-01-06 18:20:00,19.2,10.7,30.57,WSW,246,0.0,0.0,69,0.00,,,0.00,WeatherCatV1.11B39,2013-01-07 01:20:00,
2013-01-06 18:25:00,19.0,11.5,30.57,WSW,242,0.0,0.0,72,0.00,,,0.00,WeatherCatV1.11B39,2013-01-07 01:25:00,
2013-01-06 18:30:00,18.7,11.2,30.57,SSE,148,0.0,0.0,72,0.00,,,0.00,WeatherCatV1.11B39,2013-01-07 01:30:00,
2013-01-06 18:35:00,18.5,11.0,30.57,SE,138,0.0,1.0,72,0.00,,,0.00,WeatherCatV1.11B39,2013-01-07 01:35:00,
2013-01-06 18:40:00,18.4,10.9,30.58,SSE,155,0.0,1.0,72,0.00,,,0.00,WeatherCatV1.11B39,2013-01-07 01:40:00,
2013-01-06 18:45:00,18.3,10.8,30.57,SSE,153,0.0,2.0,72,0.00,,,0.00,WeatherCatV1.11B39,2013-01-07 01:45:00,
2013-01-06 18:50:00,18.1,10.6,30.58,South,176,2.0,2.0,72,0.00,,,0.00,WeatherCatV1.11B39,2013-01-07 01:50:00,
2013-01-06 18:55:00,18.0,10.5,30.58,SSE,150,0.0,0.0,72,0.00,,,0.00,WeatherCatV1.11B39,2013-01-07 01:55:00,
2013-01-06 19:00:00,18.0,10.5,30.58,SSE,150,0.0,0.0,72,0.00,,,0.00,WeatherCatV1.11B39,2013-01-07 02:00:00,
2013-01-06 19:05:00,17.9,10.7,30.58,SSE,149,0.0,0.0,73,0.00,,,0.00,WeatherCatV1.11B39,2013-01-07 02:05:00,
2013-01-06 19:10:00,17.9,11.0,30.58,SSE,149,0.0,0.0,74,0.00,,,0.00,WeatherCatV1.11B39,2013-01-07 02:10:00,
2013-01-06 19:15:00,17.9,10.7,30.58,SSE,150,0.0,0.0,73,0.00,,,0.00,WeatherCatV1.11B39,2013-01-07 02:15:00,
2013-01-06 19:20:00,17.8,10.9,30.58,SSE,158,1.0,1.0,74,0.00,,,0.00,WeatherCatV1.11B39,2013-01-07 02:20:00,
2013-01-06 19:25:00,17.6,11.1,30.58,South,183,0.0,1.0,75,0.00,,,0.00,WeatherCatV1.11B39,2013-01-07 02:25:00,
2013-01-06 19:30:00,17.5,10.7,30.58,South,181,0.0,0.0,74,0.00,,,0.00,WeatherCatV1.11B39,2013-01-07 02:30:00,
2013-01-06 19:35:00,17.5,10.7,30.58,SSW,204,0.0,1.0,74,0.00,,,0.00,WeatherCatV1.11B39,2013-01-07 02:35:00,
2013-01-06 19:40:00,17.7,10.2,30.58,South,181,0.0,1.0,72,0.00,,,0.00,WeatherCatV1.11B39,2013-01-07 02:40:00,
2013-01-06 19:45:00,17.7,10.2,30.58,South,172,0.0,0.0,72,0.00,,,0.00,WeatherCatV1.11B39,2013-01-07 02:45:00,
2013-01-06 19:50:00,17.7,10.5,30.58,South,172,0.0,0.0,73,0.00,,,0.00,WeatherCatV1.11B39,2013-01-07 02:50:00,
2013-01-06 19:55:00,17.8,10.6,30.58,South,172,0.0,0.0,73,0.00,,,0.00,WeatherCatV1.11B39,2013-01-07 02:55:00,
2013-01-06 20:00:00,18.0,10.8,30.58,South,172,0.0,0.0,73,0.00,,,0.00,WeatherCatV1.11B39,2013-01-07 03:00:00,
2013-01-06 20:05:00,17.9,11.0,30.57,South,172,0.0,0.0,74,0.00,,,0.00,WeatherCatV1.11B39,2013-01-07 03:05:00,
2013-01-06 20:10:00,17.8,10.9,30.57,South,172,0.0,0.0,74,0.00,,,0.00,WeatherCatV1.11B39,2013-01-07 03:10:00,
2013-01-06 20:15:00,17.6,11.1,30.57,South,172,0.0,0.0,75,0.00,,,0.00,WeatherCatV1.11B39,2013-01-07 03:15:00,
2013-01-06 20:20:00,17.4,10.9,30.57,SSE,168,0.0,0.0,75,0.00,,,0.00,WeatherCatV1.11B39,2013-01-07 03:20:00,
2013-01-06 20:25:00,17.1,10.9,30.58,SSE,168,0.0,0.0,76,0.00,,,0.00,WeatherCatV1.11B39,2013-01-07 03:25:00,
2013-01-06 20:30:00,16.8,10.9,30.57,SSE,167,0.0,0.0,77,0.00,,,0.00,WeatherCatV1.11B39,2013-01-07 03:30:00,
2013-01-06 20:35:00,16.5,10.9,30.58,SSE,168,1.0,1.0,78,0.00,,,0.00,WeatherCatV1.11B39,2013-01-07 03:35:00,
2013-01-06 20:40:00,16.0,10.7,30.58,SSE,165,0.0,1.0,79,0.00,,,0.00,WeatherCatV1.11B39,2013-01-07 03:40:00,
2013-01-06 20:45:00,15.6,10.3,30.58,SSE,165,0.0,0.0,79,0.00,,,0.00,WeatherCatV1.11B39,2013-01-07 03:45:00,
2013-01-06 20:50:00,15.2,10.4,30.58,SSE,165,0.0,0.0,81,0.00,,,0.00,WeatherCatV1.11B39,2013-01-07 03:50:00,
2013-01-06 20:55:00,14.9,10.4,30.58,SSE,165,0.0,0.0,82,0.00,,,0.00,WeatherCatV1.11B39,2013-01-07 03:55:00,
2013-01-06 21:00:00,14.6,9.6,30.58,SSE,165,0.0,0.0,80,0.00,,,0.00,WeatherCatV1.11B39,2013-01-07 04:00:00,
2013-01-06 21:05:00,14.4,9.7,30.58,SSE,165,0.0,0.0,81,0.00,,,0.00,WeatherCatV1.11B39,2013-01-07 04:05:00,
2013-01-06 21:10:00,14.2,9.7,30.58,SSE,165,0.0,0.0,82,0.00,,,0.00,WeatherCatV1.11B39,2013-01-07 04:10:00,
2013-01-06 21:15:00,13.9,9.4,30.58,SSE,165,0.0,0.0,82,0.00,,,0.00,WeatherCatV1.11B39,2013-01-07 04:15:00,
2013-01-06 21:20:00,13.7,9.2,30.58,ESE,121,0.0,1.0,82,0.00,,,0.00,WeatherCatV1.11B39,2013-01-07 04:20:00,
2013-01-06 21:25:00,13.4,9.2,30.58,ESE,121,0.0,1.0,83,0.00,,,0.00,WeatherCatV1.11B39,2013-01-07 04:25:00,
2013-01-06 21:30:00,13.0,8.3,30.58,SSE,160,0.0,0.0,81,0.00,,,0.00,WeatherCatV1.11B39,2013-01-07 04:30:00,
2013-01-06 21:35:00,12.9,8.5,30.58,SSE,147,0.0,0.0,82,0.00,,,0.00,WeatherCatV1.11B39,2013-01-07 04:35:00,
2013-01-06 21:40:00,12.6,8.2,30.58,South,170,1.0,1.0,82,0.00,,,0.00,WeatherCatV1.11B39,2013-01-07 04:40:00,
2013-01-06 21:45:00,12.4,8.0,30.57,South,169,0.0,0.0,82,0.00,,,0.00,WeatherCatV1.11B39,2013-01-07 04:45:00,
2013-01-06 21:50:00,12.4,8.2,30.57,ESE,112,0.0,0.0,83,0.00,,,0.00,WeatherCatV1.11B39,2013-01-07 04:50:00,
2013-01-06 21:55:00,12.2,8.0,30.57,South,176,0.0,1.0,83,0.00,,,0.00,WeatherCatV1.11B39,2013-01-07 04:55:00,
2013-01-06 22:00:00,12.0,7.6,30.57,SE,133,0.0,1.0,82,0.00,,,0.00,WeatherCatV1.11B39,2013-01-07 05:00:00,
2013-01-06 22:05:00,11.9,7.5,30.57,SSE,166,0.0,0.0,82,0.00,,,0.00,WeatherCatV1.11B39,2013-01-07 05:05:00,
2013-01-06 22:10:00,11.8,7.7,30.57,SSE,155,0.0,0.0,83,0.00,,,0.00,WeatherCatV1.11B39,2013-01-07 05:10:00,
2013-01-06 22:15:00,11.6,7.5,30.57,SSE,155,0.0,0.0,83,0.00,,,0.00,WeatherCatV1.11B39,2013-01-07 05:15:00,
2013-01-06 22:20:00,11.5,7.4,30.57,SSE,155,0.0,0.0,83,0.00,,,0.00,WeatherCatV1.11B39,2013-01-07 05:20:00,
2013-01-06 22:25:00,11.3,7.4,30.57,SSE,155,0.0,0.0,84,0.00,,,0.00,WeatherCatV1.11B39,2013-01-07 05:25:00,
2013-01-06 22:30:00,11.0,7.1,30.57,SSE,155,1.0,1.0,84,0.00,,,0.00,WeatherCatV1.11B39,2013-01-07 05:30:00,
2013-01-06 22:35:00,10.7,7.1,30.57,South,172,1.0,1.0,85,0.00,,,0.00,WeatherCatV1.11B39,2013-01-07 05:35:00,
2013-01-06 22:40:00,10.6,6.7,30.57,SSE,167,1.0,1.0,84,0.00,,,0.00,WeatherCatV1.11B39,2013-01-07 05:40:00,
2013-01-06 22:45:00,10.4,6.5,30.57,South,172,0.0,0.0,84,0.00,,,0.00,WeatherCatV1.11B39,2013-01-07 05:45:00,
2013-01-06 22:50:00,10.2,6.3,30.57,South,172,0.0,0.0,84,0.00,,,0.00,WeatherCatV1.11B39,2013-01-07 05:50:00,
2013-01-06 22:55:00,10.1,6.5,30.57,South,172,0.0,0.0,85,0.00,,,0.00,WeatherCatV1.11B39,2013-01-07 05:55:00,
2013-01-06 23:00:00,10.0,6.7,30.57,South,172,0.0,0.0,86,0.00,,,0.00,WeatherCatV1.11B39,2013-01-07 06:00:00,
2013-01-06 23:05:00,10.1,6.8,30.57,SSE,165,0.0,0.0,86,0.00,,,0.00,WeatherCatV1.11B39,2013-01-07 06:05:00,
2013-01-06 23:10:00,10.2,6.6,30.57,SSE,165,0.0,0.0,85,0.00,,,0.00,WeatherCatV1.11B39,2013-01-07 06:10:00,
2013-01-06 23:15:00,10.0,6.7,30.57,SSE,165,0.0,0.0,86,0.00,,,0.00,WeatherCatV1.11B39,2013-01-07 06:15:00,
2013-01-06 23:20:00,9.6,6.3,30.57,SSE,165,0.0,0.0,86,0.00,,,0.00,WeatherCatV1.11B39,2013-01-07 06:20:00,
2013-01-06 23:25:00,9.3,6.5,30.58,SSE,165,0.0,0.0,88,0.00,,,0.00,WeatherCatV1.11B39,2013-01-07 06:25:00,
2013-01-06 23:30:00,9.1,6.3,30.58,SSE,165,1.0,1.0,88,0.00,,,0.00,WeatherCatV1.11B39,2013-01-07 06:30:00,
2013-01-06 23:35:00,8.9,6.1,30.58,SSE,165,1.0,1.0,88,0.00,,,0.00,WeatherCatV1.11B39,2013-01-07 06:35:00,
2013-01-06 23:40:00,8.8,5.7,30.57,South,170,1.0,1.0,87,0.00,,,0.00,WeatherCatV1.11B39,2013-01-07 06:40:00,
2013-01-06 23:45:00,8.7,5.6,30.57,SE,131,0.0,1.0,87,0.00,,,0.00,WeatherCatV1.11B39,2013-01-07 06:45:00,
2013-01-06 23:50:00,8.4,5.3,30.58,SE,131,0.0,0.0,87,0.00,,,0.00,WeatherCatV1.11B39,2013-01-07 06:50:00,
2013-01-06 23:55:00,8.1,5.0,30.57,SE,131,0.0,0.0,87,0.00,,,0.00,WeatherCatV1.11B39,2013-01-07 06:55:00,